User: anonymous   Login
Location: Fort Wayne
(41.1310°N, 85.1290°W)
Time: 22:40:52
(UTC-04:00)
Language:

OPAL - Orbit

View from above orbital plane
View from above orbital plane
View from above satellite
View from above satellite

Ground track
Ground track

The orbit data is extracted from the following two-line orbital elements,

1 26063U 00004C   15184.86039099  .00000027  00000-0  29016-4 0  9995
2 26063 100.2154 046.6094 0036716 161.7445 198.5063 14.36548105808827
Epoch (UTC): 03 July 2015 20:38:57
Eccentricity: 0.0036716
inclination: 100.2154°
perigee height: 743 km
apogee height: 796 km
right ascension of ascending node: 46.6094°
argument of perigee: 161.7445°
revolutions per day: 14.36548105
mean anomaly at epoch: 198.5063°
orbit number at epoch: 80882

The dashed part of the orbit path shows where the satellite is in the earth's shadow,  

DLR